Location: Unspecified
(0.0000°N, 0.0000°E)
Time: 01:56:06
(UTC+00:00)

Hubble Space Telescope - Pass Details

Date: 23 March 2018
Orbit: 537 x 541 km, 28.5° (Epoch: 17 June)

Event Time Altitude Azimuth Distance (km) Brightness Sun altitude
Rises 19:26:06 0° 327° (NNW) 2,671 4.8 -19.9°
Reaches altitude 10° 19:29:07 10° 350° (N) 1,782 3.5 -20.6°
Enters shadow 19:30:42 15° 12° (NNE) 1,505 2.9 -21.0°
